Hartford, CT

7:44 AM EST on January 16, 2018 (GMT -0500)
Hartford-brainard

Weather History for KHFD - June, 2013

Change the Weather History Date:

Sunday, June 2, 2013

  Actual Average Record
Temperature  
Mean Temperature 76 °F -  
Max Temperature 84 °F 76 °F 89 °F (1934)
Min Temperature 68 °F 53 °F 43 °F (1946)
Cooling Degree Days 11    
Growing Degree Days 26 (Base 50)    
Moisture  
Dew Point 66 °F    
Average Humidity 72    
Maximum Humidity 90    
Minimum Humidity 55    
Precipitation  
Precipitation 0.00 in - - ()
Sea Level Pressure  
Sea Level Pressure 29.81 in    
Wind  
Wind Speed 9 mph (South)    
Max Wind Speed 17 mph    
Max Gust Speed 25 mph    
Visibility 10 miles    
Events Thunderstorm    
Averages and records for this station are not official NWS values.
T = Trace of Precipitation, MM = Missing Value Source: NWS Daily Summary

Daily Weather History Graph

Daily Weather History Graph

Search for Another Location

Airport or City:

Trip Planner

Search our weather history database for the weather conditions in past years. The results will help you decide how hot, cold, wet, or windy it might be!

Date:

Astronomy

Jun. 02, 2013 Rise Set
Actual Time 5:17 AM EDT 8:19 PM EDT
Civil Twilight 4:44 AM EDT 8:53 PM EDT
Nautical Twilight 4:01 AM EDT 9:36 PM EDT
Astronomical Twilight 3:11 AM EDT 10:26 PM EDT
Moon 1:47 AM EDT (6/2) 2:43 PM EDT (6/2)
Length of Visible Light 16h 09m
Length of Day
15h 01m
Waning Crescent, 31% of the Moon is Illuminated
Jun 2
Waning Crescent
Jun 8
New
Jun 16
First Quarter
Jun 23
Full
Jun 30
Last Quarter

Hourly Weather History & Observations

Time (EDT) Temp. Heat Index Dew Point Humidity Pressure Visibility Wind Dir Wind Speed Gust Speed Precip Events Conditions
12:53 AM 72.0 °F - 64.9 °F 78% 29.89 in 10.0 mi SSE 5.8 mph - N/A   Clear
1:53 AM 70.0 °F - 64.9 °F 84% 29.88 in 10.0 mi SSE 3.5 mph - N/A   Clear
2:53 AM 70.0 °F - 64.9 °F 84% 29.87 in 10.0 mi SSE 4.6 mph - N/A   Clear
3:53 AM 69.1 °F - 64.9 °F 87% 29.87 in 10.0 mi South 5.8 mph - N/A   Clear
4:53 AM 68.0 °F - 64.9 °F 90% 29.87 in 10.0 mi South 5.8 mph - N/A   Clear
5:53 AM 68.0 °F - 64.9 °F 90% 29.87 in 10.0 mi South 6.9 mph - N/A   Clear
6:53 AM 70.0 °F - 64.9 °F 84% 29.86 in 10.0 mi South 8.1 mph - N/A   Clear
7:53 AM 73.0 °F - 66.0 °F 79% 29.86 in 10.0 mi South 8.1 mph - N/A   Clear
8:53 AM 77.0 °F - 66.9 °F 71% 29.85 in 10.0 mi South 11.5 mph 17.3 mph N/A   Clear
9:53 AM 80.1 °F 82.7 °F 68.0 °F 67% 29.83 in 10.0 mi South 10.4 mph - N/A   Clear
10:53 AM 81.0 °F 83.3 °F 66.9 °F 62% 29.82 in 10.0 mi South 12.7 mph - N/A   Clear
11:53 AM 82.9 °F 85.8 °F 68.0 °F 60% 29.82 in 10.0 mi South 10.4 mph 17.3 mph N/A   Clear
12:53 PM 84.0 °F 86.5 °F 66.9 °F 56% 29.81 in 10.0 mi South 17.3 mph 24.2 mph N/A   Clear
1:53 PM 84.9 °F 87.6 °F 66.9 °F 55% 29.78 in 10.0 mi South 17.3 mph 24.2 mph N/A   Clear
2:53 PM 84.9 °F 87.6 °F 66.9 °F 55% 29.77 in 10.0 mi South 17.3 mph 24.2 mph N/A   Clear
3:53 PM 84.0 °F 87.0 °F 68.0 °F 58% 29.76 in 10.0 mi South 17.3 mph 25.3 mph N/A   Clear
4:53 PM 82.9 °F 85.8 °F 68.0 °F 60% 29.75 in 10.0 mi South 17.3 mph 23.0 mph N/A   Clear
5:51 PM 78.8 °F - 66.2 °F 65% 29.75 in 10.0 mi South 16.1 mph 21.9 mph N/A Thunderstorm Clear
5:53 PM 79.0 °F - 66.0 °F 64% 29.75 in 10.0 mi South 16.1 mph 21.9 mph N/A Thunderstorm Clear
6:06 PM 78.8 °F - 66.2 °F 65% 29.76 in 10.0 mi South 16.1 mph 20.7 mph N/A   Clear
6:53 PM 75.9 °F - 64.9 °F 69% 29.78 in 10.0 mi SSE 9.2 mph - N/A Thunderstorm Partly Cloudy
7:25 PM 73.4 °F - 64.4 °F 73% 29.79 in 10.0 mi South 4.6 mph - N/A   Partly Cloudy
7:53 PM 75.0 °F - 64.9 °F 71% 29.79 in 10.0 mi SSE 5.8 mph - N/A   Partly Cloudy
8:53 PM 73.0 °F - 64.9 °F 76% 29.80 in 10.0 mi South 8.1 mph - N/A   Clear
9:53 PM 71.1 °F - 64.0 °F 78% 29.81 in 10.0 mi South 8.1 mph - N/A   Mostly Cloudy
10:53 PM 71.1 °F - 64.0 °F 78% 29.80 in 10.0 mi South 6.9 mph - N/A   Scattered Clouds
11:53 PM 70.0 °F - 64.0 °F 81% 29.81 in 10.0 mi SSE 5.8 mph - N/A   Mostly Cloudy